Back to catalog

SL-14 DEB

AlivePO
NORAD 26006·DEBRIS·🇷🇺 Russia

Launched Sep 28, 1991 from Plesetsk Cosmodrome

Loading…

Next Passes (next 24 hours)

TLE

FreshSource: Space-Track

Epoch: Sep 14, 2026, 15:17 UTC

1 26006U 91068R   26257.63687447  .00000072  00000-0  33814-3 0  9996
2 26006  82.6124 323.2504 0092406 278.6730 237.4027 12.62640751240894

Track SL-14 DEB in real time with AllMySat

Download on the App Store